User: anonymous   Login
Location: Charlottesville
(38.0290°N, 78.4770°W)
Time: 10:42:44
(UTC-04:00)
Language:

XW-2F - Orbit

View from above orbital plane
View from above orbital plane
View from above satellite
View from above satellite

Ground track
Ground track

The orbit data is extracted from the following two-line orbital elements,

1 40910U 15049M   18201.07717960  .00000905  00000-0  49688-4 0  9995
2 40910  97.4573 205.0350 0013328 269.3582  90.6124 15.16612214156449
Epoch (UTC): 20 July 2018 01:51:08
Eccentricity: 0.0013328
inclination: 97.4573°
perigee height: 507 km
apogee height: 525 km
right ascension of ascending node: 205.0350°
argument of perigee: 269.3582°
revolutions per day: 15.16612214
mean anomaly at epoch: 90.6124°
orbit number at epoch: 15644

The dashed part of the orbit path shows where the satellite is in the earth's shadow,  

DLR